ARG1894 SABE-SAME

Flight info

Callsign ARG1894
Flight time 1h 30m
Altitude 34000
Route PAL9 NEPIS DCT NIN UL405 PAPIR PAPIR3Q
Aircraft B38M/M-SDE1FGHILORVWXY/HB1

Departure

Time 2026-04-16 13:59
Airport Aeroparque Jorge Newbery (SABE)

Arrival

Time 2026-04-16 15:30
Airport Governor Francisco Gabrielli International Airport (SAME)
Time Latitude Longitude Altitude Speed Heading
2026-04-16 13:20 -34.55804 -58.41250 31 ft 0 kts 37°
2026-04-16 13:43 -34.55805 -58.41251 31 ft 2 kts 36°
2026-04-16 13:43 -34.55816 -58.41258 31 ft 2 kts 19°
2026-04-16 13:44 -34.55827 -58.41261 31 ft 2 kts 353°
2026-04-16 13:44 -34.55838 -58.41257 31 ft 2 kts 330°
2026-04-16 13:44 -34.55849 -58.41249 31 ft 2 kts 316°
2026-04-16 13:44 -34.55856 -58.41240 31 ft 1 kts 311°
2026-04-16 13:45 -34.55860 -58.41233 31 ft 1 kts 309°
2026-04-16 13:45 -34.55864 -58.41228 31 ft 1 kts 309°
2026-04-16 13:45 -34.55868 -58.41222 31 ft 1 kts 308°
2026-04-16 13:45 -34.55871 -58.41216 31 ft 1 kts 308°
2026-04-16 13:46 -34.55873 -58.41215 31 ft 0 kts 308°
2026-04-16 13:51 -34.55869 -58.41220 31 ft 2 kts 308°
2026-04-16 13:51 -34.55855 -58.41248 31 ft 3 kts 289°
2026-04-16 13:51 -34.55857 -58.41260 31 ft 3 kts 245°
2026-04-16 13:51 -34.55896 -58.41298 31 ft 8 kts 195°
2026-04-16 13:52 -34.55940 -58.41269 31 ft 10 kts 129°
2026-04-16 13:52 -34.55994 -58.41183 31 ft 14 kts 128°
2026-04-16 13:52 -34.56048 -58.41096 31 ft 12 kts 127°
2026-04-16 13:52 -34.56083 -58.41040 31 ft 6 kts 127°
2026-04-16 13:53 -34.56100 -58.41014 31 ft 3 kts 127°
2026-04-16 13:53 -34.56110 -58.40996 31 ft 2 kts 127°
2026-04-16 13:53 -34.56116 -58.40988 31 ft 1 kts 127°
2026-04-16 13:53 -34.56117 -58.40986 31 ft 0 kts 127°
2026-04-16 13:54 -34.56120 -58.40981 31 ft 3 kts 127°
2026-04-16 13:54 -34.56138 -58.40950 31 ft 6 kts 124°
2026-04-16 13:54 -34.56162 -58.40905 31 ft 7 kts 120°
2026-04-16 13:54 -34.56188 -58.40850 31 ft 8 kts 126°
2026-04-16 13:55 -34.56226 -58.40799 31 ft 8 kts 137°
2026-04-16 13:55 -34.56262 -58.40757 31 ft 0 kts 136°
2026-04-16 13:56 -34.56266 -58.40753 31 ft 3 kts 136°
2026-04-16 13:56 -34.56302 -58.40712 30 ft 11 kts 136°
2026-04-16 13:56 -34.56336 -58.40672 30 ft 11 kts 138°
2026-04-16 13:57 -34.56410 -58.40684 28 ft 7 kts 245°
2026-04-16 13:57 -34.56411 -58.40704 28 ft 0 kts 288°
2026-04-16 13:57 -34.56399 -58.40726 29 ft 7 kts 307°
2026-04-16 13:58 -34.56387 -58.40746 29 ft 0 kts 303°
2026-04-16 13:58 -34.56379 -58.40760 29 ft 15 kts 303°
2026-04-16 13:58 -34.56165 -58.41147 31 ft 96 kts 303°
2026-04-16 13:59 -34.55647 -58.42068 31 ft 166 kts 303°
2026-04-16 13:59 -34.54916 -58.43360 416 ft 199 kts 302°
2026-04-16 13:59 -34.54063 -58.44723 1299 ft 208 kts 319°
2026-04-16 13:59 -34.52755 -58.45396 2176 ft 205 kts 355°
2026-04-16 14:00 -34.51307 -58.45543 2888 ft 214 kts
2026-04-16 14:00 -34.49824 -58.45156 3435 ft 228 kts 34°
2026-04-16 14:00 -34.48658 -58.43780 3871 ft 245 kts 64°
2026-04-16 14:00 -34.48195 -58.41747 4383 ft 261 kts 91°
2026-04-16 14:01 -34.48098 -58.39536 5318 ft 267 kts 78°
2026-04-16 14:01 -34.47153 -58.37585 6272 ft 278 kts 44°
2026-04-16 14:01 -34.45447 -58.36496 7119 ft 288 kts 11°
2026-04-16 14:01 -34.43429 -58.36665 8053 ft 293 kts 339°
2026-04-16 14:02 -34.41802 -58.38046 8992 ft 293 kts 307°
2026-04-16 14:02 -34.40968 -58.40262 9882 ft 292 kts 276°
2026-04-16 14:02 -34.40952 -58.42722 10652 ft 297 kts 263°
2026-04-16 14:02 -34.41278 -58.45247 11215 ft 311 kts 260°
2026-04-16 14:03 -34.41585 -58.47888 11889 ft 321 kts 260°
2026-04-16 14:03 -34.41923 -58.50560 12899 ft 321 kts 259°
2026-04-16 14:03 -34.42281 -58.53245 13749 ft 325 kts 259°
2026-04-16 14:03 -34.42656 -58.55954 14440 ft 328 kts 260°
2026-04-16 14:04 -34.43041 -58.58698 15099 ft 332 kts 260°
2026-04-16 14:04 -34.43432 -58.61474 15739 ft 336 kts 260°
2026-04-16 14:04 -34.43826 -58.64281 16396 ft 340 kts 261°
2026-04-16 14:04 -34.44229 -58.67123 17026 ft 344 kts 261°
2026-04-16 14:05 -34.44634 -58.69992 17655 ft 347 kts 261°
2026-04-16 14:05 -34.45044 -58.72892 18232 ft 351 kts 262°
2026-04-16 14:05 -34.45459 -58.75833 18767 ft 354 kts 262°
2026-04-16 14:05 -34.45875 -58.78783 19308 ft 357 kts 262°
2026-04-16 14:06 -34.46294 -58.81762 19827 ft 360 kts 262°
2026-04-16 14:06 -34.46715 -58.84761 20359 ft 362 kts 262°
2026-04-16 14:06 -34.47141 -58.87781 20884 ft 365 kts 262°
2026-04-16 14:06 -34.47568 -58.90825 21433 ft 368 kts 262°
2026-04-16 14:07 -34.47996 -58.93891 21956 ft 371 kts 262°
2026-04-16 14:07 -34.48428 -58.96981 22508 ft 373 kts 262°
2026-04-16 14:07 -34.48862 -59.00088 23061 ft 376 kts 262°
2026-04-16 14:07 -34.49299 -59.03226 23582 ft 379 kts 262°
2026-04-16 14:08 -34.49738 -59.06383 24046 ft 381 kts 263°
2026-04-16 14:08 -34.50181 -59.09567 24515 ft 384 kts 263°
2026-04-16 14:08 -34.50625 -59.12766 24985 ft 386 kts 263°
2026-04-16 14:08 -34.51071 -59.15987 25433 ft 389 kts 263°
2026-04-16 14:09 -34.51520 -59.19233 25913 ft 391 kts 263°
2026-04-16 14:09 -34.51971 -59.22495 26364 ft 394 kts 263°
2026-04-16 14:09 -34.52425 -59.25784 26811 ft 396 kts 263°
2026-04-16 14:09 -34.52880 -59.29088 27250 ft 399 kts 263°
2026-04-16 14:10 -34.53338 -59.32413 27692 ft 401 kts 264°
2026-04-16 14:10 -34.53796 -59.35756 28122 ft 403 kts 264°
2026-04-16 14:10 -34.54259 -59.39124 28545 ft 406 kts 264°
2026-04-16 14:10 -34.54722 -59.42514 28965 ft 409 kts 264°
2026-04-16 14:11 -34.55188 -59.45921 29373 ft 411 kts 264°
2026-04-16 14:11 -34.55649 -59.49304 29770 ft 413 kts 264°
2026-04-16 14:11 -34.56126 -59.52807 30137 ft 416 kts 264°
2026-04-16 14:11 -34.56592 -59.56230 30453 ft 419 kts 264°
2026-04-16 14:12 -34.57049 -59.59731 30766 ft 420 kts 267°
2026-04-16 14:12 -34.57063 -59.63250 31075 ft 417 kts 277°
2026-04-16 14:12 -34.56940 -59.66781 31375 ft 422 kts 274°
2026-04-16 14:12 -34.56909 -59.70339 31772 ft 422 kts 274°
2026-04-16 14:13 -34.56860 -59.73889 32212 ft 420 kts 274°
2026-04-16 14:13 -34.56800 -59.77434 32658 ft 419 kts 274°
2026-04-16 14:13 -34.56736 -59.80969 33079 ft 419 kts 275°
2026-04-16 14:13 -34.56670 -59.84499 33499 ft 418 kts 275°
2026-04-16 14:14 -34.56602 -59.88022 33861 ft 419 kts 275°
2026-04-16 14:14 -34.56534 -59.91546 33876 ft 417 kts 275°
2026-04-16 14:14 -34.56394 -59.98557 33883 ft 415 kts 275°
2026-04-16 14:15 -34.56251 -60.05554 33885 ft 415 kts 275°
2026-04-16 14:15 -34.56103 -60.12549 33885 ft 415 kts 275°
2026-04-16 14:16 -34.55952 -60.19541 33888 ft 414 kts 275°
2026-04-16 14:16 -34.55797 -60.26532 33891 ft 414 kts 275°
2026-04-16 14:17 -34.55638 -60.33512 33892 ft 414 kts 275°
2026-04-16 14:17 -34.55475 -60.40493 33894 ft 414 kts 275°
2026-04-16 14:18 -34.55308 -60.47473 33895 ft 414 kts 275°
2026-04-16 14:18 -34.55137 -60.54467 33898 ft 414 kts 275°
2026-04-16 14:19 -34.54962 -60.61445 33899 ft 414 kts 275°
2026-04-16 14:19 -34.54783 -60.68433 33902 ft 414 kts 274°
2026-04-16 14:20 -34.54600 -60.75421 33906 ft 414 kts 274°
2026-04-16 14:20 -34.54414 -60.82399 33911 ft 414 kts 274°
2026-04-16 14:21 -34.54224 -60.89383 33911 ft 414 kts 274°
2026-04-16 14:21 -34.53701 -60.96298 33911 ft 410 kts 286°
2026-04-16 14:22 -34.52495 -61.03049 33917 ft 412 kts 277°
2026-04-16 14:22 -34.51514 -61.09871 33916 ft 411 kts 282°
2026-04-16 14:23 -34.50506 -61.16689 33920 ft 411 kts 282°
2026-04-16 14:23 -34.49454 -61.23495 33916 ft 411 kts 282°
2026-04-16 14:24 -34.48392 -61.30294 33920 ft 411 kts 282°
2026-04-16 14:24 -34.47332 -61.37049 33922 ft 410 kts 282°
2026-04-16 14:25 -34.46263 -61.43835 33928 ft 410 kts 282°
2026-04-16 14:25 -34.45191 -61.50621 33926 ft 410 kts 282°
2026-04-16 14:26 -34.44110 -61.57410 33924 ft 410 kts 282°
2026-04-16 14:26 -34.43023 -61.64193 33929 ft 410 kts 282°
2026-04-16 14:27 -34.41934 -61.70970 33933 ft 410 kts 282°
2026-04-16 14:27 -34.40841 -61.77746 33935 ft 410 kts 282°
2026-04-16 14:28 -34.39743 -61.84520 33936 ft 410 kts 282°
2026-04-16 14:28 -34.38643 -61.91295 33936 ft 410 kts 282°
2026-04-16 14:29 -34.37539 -61.98061 33941 ft 410 kts 282°
2026-04-16 14:29 -34.36430 -62.04834 33940 ft 410 kts 282°
2026-04-16 14:30 -34.35317 -62.11606 33942 ft 410 kts 282°
2026-04-16 14:30 -34.34200 -62.18380 33944 ft 411 kts 282°
2026-04-16 14:31 -34.33077 -62.25158 33948 ft 411 kts 282°
2026-04-16 14:31 -34.31952 -62.31933 33943 ft 411 kts 282°
2026-04-16 14:32 -34.30822 -62.38712 33948 ft 411 kts 282°
2026-04-16 14:32 -34.29688 -62.45489 33951 ft 412 kts 282°
2026-04-16 14:33 -34.28555 -62.52233 33950 ft 412 kts 282°
2026-04-16 14:33 -34.27411 -62.59022 33956 ft 412 kts 282°
2026-04-16 14:34 -34.26263 -62.65809 33951 ft 412 kts 282°
2026-04-16 14:34 -34.25110 -62.72604 33960 ft 413 kts 282°
2026-04-16 14:35 -34.23952 -62.79401 33956 ft 413 kts 282°
2026-04-16 14:35 -34.22791 -62.86194 33958 ft 413 kts 282°
2026-04-16 14:36 -34.21624 -62.92996 33959 ft 413 kts 282°
2026-04-16 14:36 -34.20453 -62.99798 33956 ft 414 kts 282°
2026-04-16 14:37 -34.19278 -63.06605 33961 ft 414 kts 282°
2026-04-16 14:37 -34.18105 -63.13370 33956 ft 414 kts 282°
2026-04-16 14:38 -34.16922 -63.20174 33961 ft 414 kts 282°
2026-04-16 14:38 -34.15725 -63.27033 33959 ft 415 kts 282°
2026-04-16 14:39 -34.14542 -63.33800 33964 ft 415 kts 282°
2026-04-16 14:39 -34.13231 -63.40585 33965 ft 416 kts 283°
2026-04-16 14:40 -34.11898 -63.47373 33963 ft 416 kts 283°
2026-04-16 14:40 -34.10565 -63.54161 33963 ft 416 kts 283°
2026-04-16 14:41 -34.09226 -63.60954 33964 ft 416 kts 283°
2026-04-16 14:41 -34.07883 -63.67752 33963 ft 416 kts 283°
2026-04-16 14:42 -34.06756 -63.73439 33968 ft 417 kts 283°
2026-04-16 14:42 -34.05404 -63.80243 33964 ft 417 kts 283°
2026-04-16 14:43 -34.04048 -63.87047 33967 ft 417 kts 283°
2026-04-16 14:43 -34.02690 -63.93846 33965 ft 417 kts 283°
2026-04-16 14:44 -34.01328 -64.00646 33969 ft 417 kts 283°
2026-04-16 14:44 -33.99961 -64.07444 33969 ft 418 kts 283°
2026-04-16 14:45 -33.98591 -64.14242 33964 ft 418 kts 283°
2026-04-16 14:45 -33.97215 -64.21046 33965 ft 418 kts 283°
2026-04-16 14:46 -33.95845 -64.27799 33964 ft 418 kts 283°
2026-04-16 14:46 -33.94464 -64.34593 33967 ft 418 kts 283°
2026-04-16 14:47 -33.93077 -64.41391 33966 ft 418 kts 283°
2026-04-16 14:47 -33.91677 -64.48234 33967 ft 418 kts 283°
2026-04-16 14:48 -33.90289 -64.54990 33972 ft 419 kts 282°
2026-04-16 14:48 -33.88888 -64.61792 33966 ft 419 kts 282°
2026-04-16 14:49 -33.87484 -64.68587 33965 ft 419 kts 282°
2026-04-16 14:49 -33.86075 -64.75388 33965 ft 419 kts 282°
2026-04-16 14:50 -33.84660 -64.82193 33964 ft 419 kts 282°
2026-04-16 14:50 -33.83243 -64.88988 33969 ft 419 kts 282°
2026-04-16 14:51 -33.81820 -64.95784 33970 ft 419 kts 282°
2026-04-16 14:51 -33.80393 -65.02586 33971 ft 420 kts 282°
2026-04-16 14:53 -33.74643 -65.29785 33994 ft 420 kts 282°
2026-04-16 14:54 -33.73197 -65.36578 33990 ft 420 kts 282°
2026-04-16 14:54 -33.71616 -65.43333 33996 ft 420 kts 283°
2026-04-16 14:55 -33.70029 -65.50090 33993 ft 420 kts 283°
2026-04-16 14:55 -33.68442 -65.56840 33978 ft 420 kts 283°
2026-04-16 14:56 -33.66851 -65.63588 33976 ft 420 kts 283°
2026-04-16 14:56 -33.65257 -65.70333 33966 ft 420 kts 283°
2026-04-16 14:57 -33.63659 -65.77072 33962 ft 420 kts 283°
2026-04-16 14:57 -33.62059 -65.83808 33963 ft 420 kts 282°
2026-04-16 14:58 -33.59663 -65.93859 33955 ft 420 kts 282°
2026-04-16 14:59 -33.58054 -66.00586 33956 ft 419 kts 282°
2026-04-16 14:59 -33.56444 -66.07299 33955 ft 419 kts 282°
2026-04-16 15:00 -33.54830 -66.14011 33960 ft 419 kts 282°
2026-04-16 15:00 -33.53215 -66.20712 33965 ft 418 kts 282°
2026-04-16 15:01 -33.51596 -66.27408 33971 ft 418 kts 282°
2026-04-16 15:01 -33.49974 -66.34104 33975 ft 418 kts 282°
2026-04-16 15:02 -33.48129 -66.40720 33978 ft 421 kts 286°
2026-04-16 15:02 -33.46056 -66.47269 33970 ft 420 kts 286°
2026-04-16 15:03 -33.44013 -66.53815 33972 ft 419 kts 286°
2026-04-16 15:03 -33.42058 -66.60379 33964 ft 416 kts 281°
2026-04-16 15:04 -33.40468 -66.67040 33960 ft 416 kts 282°
2026-04-16 15:04 -33.38831 -66.73680 33946 ft 412 kts 282°
2026-04-16 15:04 -33.38027 -66.76920 33821 ft 399 kts 281°
2026-04-16 15:05 -33.37245 -66.80068 33531 ft 391 kts 281°
2026-04-16 15:05 -33.36484 -66.83128 33486 ft 376 kts 281°
2026-04-16 15:05 -33.35751 -66.86070 33498 ft 363 kts 281°
2026-04-16 15:05 -33.35025 -66.88990 33218 ft 373 kts 281°
2026-04-16 15:06 -33.34278 -66.91979 32705 ft 377 kts 281°
2026-04-16 15:06 -33.33524 -66.94994 32209 ft 379 kts 282°
2026-04-16 15:06 -33.32770 -66.98009 31780 ft 377 kts 282°
2026-04-16 15:06 -33.32020 -67.01002 31354 ft 375 kts 282°
2026-04-16 15:07 -33.31272 -67.03987 30910 ft 374 kts 282°
2026-04-16 15:07 -33.30527 -67.06954 30460 ft 372 kts 282°
2026-04-16 15:07 -33.29786 -67.09904 30012 ft 370 kts 282°
2026-04-16 15:07 -33.29047 -67.12839 29505 ft 368 kts 282°
2026-04-16 15:08 -33.28312 -67.15756 29035 ft 365 kts 282°
2026-04-16 15:08 -33.27584 -67.18646 28591 ft 361 kts 282°
2026-04-16 15:08 -33.26862 -67.21505 28157 ft 358 kts 282°
2026-04-16 15:08 -33.26148 -67.24335 27732 ft 355 kts 282°
2026-04-16 15:09 -33.25383 -67.27135 27254 ft 354 kts 284°
2026-04-16 15:09 -33.24589 -67.29912 26847 ft 351 kts 284°
2026-04-16 15:09 -33.23811 -67.32655 26442 ft 348 kts 284°
2026-04-16 15:09 -33.23040 -67.35377 26029 ft 345 kts 284°
2026-04-16 15:10 -33.22273 -67.38087 25627 ft 343 kts 285°
2026-04-16 15:10 -33.21510 -67.40780 25219 ft 341 kts 285°
2026-04-16 15:10 -33.20752 -67.43455 24801 ft 339 kts 285°
2026-04-16 15:10 -33.19997 -67.46118 24405 ft 338 kts 285°
2026-04-16 15:11 -33.19244 -67.48768 23994 ft 336 kts 285°
2026-04-16 15:11 -33.18504 -67.51372 23603 ft 335 kts 285°
2026-04-16 15:11 -33.17747 -67.54036 23125 ft 334 kts 285°
2026-04-16 15:11 -33.17003 -67.56648 22693 ft 331 kts 285°
2026-04-16 15:12 -33.16274 -67.59206 22292 ft 328 kts 285°
2026-04-16 15:12 -33.15544 -67.61765 21973 ft 323 kts 285°
2026-04-16 15:12 -33.14828 -67.64274 21662 ft 317 kts 285°
2026-04-16 15:12 -33.14122 -67.66746 21324 ft 314 kts 285°
2026-04-16 15:13 -33.13413 -67.69224 20951 ft 317 kts 286°
2026-04-16 15:13 -33.12700 -67.71715 20562 ft 319 kts 286°
2026-04-16 15:13 -33.11985 -67.74219 20174 ft 319 kts 285°
2026-04-16 15:13 -33.11576 -67.76807 19704 ft 318 kts 271°
2026-04-16 15:14 -33.11403 -67.79425 19340 ft 315 kts 273°
2026-04-16 15:14 -33.11216 -67.82020 18971 ft 312 kts 272°
2026-04-16 15:14 -33.11036 -67.84551 18610 ft 301 kts 272°
2026-04-16 15:14 -33.10859 -67.87031 18224 ft 301 kts 272°
2026-04-16 15:15 -33.10680 -67.89539 17787 ft 306 kts 273°
2026-04-16 15:15 -33.10498 -67.92075 17379 ft 308 kts 273°
2026-04-16 15:15 -33.10315 -67.94619 16987 ft 308 kts 273°
2026-04-16 15:15 -33.10132 -67.97168 16599 ft 308 kts 274°
2026-04-16 15:16 -33.09949 -67.99711 16211 ft 307 kts 274°
2026-04-16 15:16 -33.09768 -68.02204 15834 ft 305 kts 274°
2026-04-16 15:16 -33.09586 -68.04710 15445 ft 301 kts 274°
2026-04-16 15:16 -33.09406 -68.07188 15071 ft 299 kts 274°
2026-04-16 15:17 -33.09226 -68.09651 14694 ft 297 kts 275°
2026-04-16 15:17 -33.09048 -68.12092 14359 ft 294 kts 275°
2026-04-16 15:17 -33.08870 -68.14511 13935 ft 290 kts 275°
2026-04-16 15:17 -33.08696 -68.16876 13520 ft 284 kts 275°
2026-04-16 15:18 -33.08522 -68.19235 13137 ft 287 kts 275°
2026-04-16 15:18 -33.08346 -68.21625 12729 ft 291 kts 276°
2026-04-16 15:18 -33.08168 -68.24027 12365 ft 291 kts 276°
2026-04-16 15:18 -33.07989 -68.26426 11999 ft 290 kts 276°
2026-04-16 15:19 -33.07812 -68.28807 11635 ft 289 kts 276°
2026-04-16 15:19 -33.07634 -68.31189 11265 ft 287 kts 276°
2026-04-16 15:19 -33.07457 -68.33552 10897 ft 286 kts 276°
2026-04-16 15:19 -33.07292 -68.35748 10552 ft 285 kts 276°
2026-04-16 15:20 -33.07115 -68.38103 10189 ft 285 kts 276°
2026-04-16 15:20 -33.06939 -68.40438 9894 ft 282 kts 276°
2026-04-16 15:20 -33.06762 -68.42775 9493 ft 283 kts 277°
2026-04-16 15:20 -33.06584 -68.45106 9113 ft 282 kts 276°
2026-04-16 15:21 -33.06407 -68.47435 8722 ft 282 kts 276°
2026-04-16 15:21 -33.06232 -68.49745 8366 ft 281 kts 276°
2026-04-16 15:21 -33.06055 -68.52057 8016 ft 279 kts 277°
2026-04-16 15:21 -33.05878 -68.54363 7662 ft 279 kts 277°
2026-04-16 15:22 -33.05702 -68.56671 7341 ft 279 kts 277°
2026-04-16 15:22 -33.05528 -68.58941 7163 ft 271 kts 277°
2026-04-16 15:22 -33.05358 -68.61142 7058 ft 260 kts 277°
2026-04-16 15:22 -33.05300 -68.63231 6897 ft 246 kts 272°
2026-04-16 15:23 -33.05292 -68.65222 6712 ft 234 kts 272°
2026-04-16 15:23 -33.05277 -68.67106 6522 ft 222 kts 273°
2026-04-16 15:23 -33.05259 -68.68925 6316 ft 222 kts 272°
2026-04-16 15:23 -33.05238 -68.70788 6083 ft 222 kts 273°
2026-04-16 15:24 -33.05214 -68.72624 5909 ft 222 kts 273°
2026-04-16 15:24 -33.05190 -68.74432 5730 ft 221 kts 273°
2026-04-16 15:24 -33.05164 -68.76284 5562 ft 219 kts 273°
2026-04-16 15:24 -33.04892 -68.77974 5459 ft 197 kts 301°
2026-04-16 15:25 -33.03991 -68.79011 5397 ft 170 kts 336°
2026-04-16 15:25 -33.02912 -68.79304 5389 ft 160 kts 359°
2026-04-16 15:25 -33.01747 -68.79363 5526 ft 173 kts 359°
2026-04-16 15:25 -33.00515 -68.79418 5340 ft 185 kts 359°
2026-04-16 15:26 -32.99212 -68.79444 5078 ft 188 kts
2026-04-16 15:26 -32.97913 -68.79452 5014 ft 187 kts
2026-04-16 15:26 -32.96604 -68.79453 4999 ft 189 kts
2026-04-16 15:26 -32.95287 -68.79449 5016 ft 189 kts
2026-04-16 15:27 -32.93982 -68.79440 5044 ft 188 kts
2026-04-16 15:27 -32.92694 -68.79416 4753 ft 179 kts
2026-04-16 15:27 -32.91469 -68.79405 4199 ft 175 kts
2026-04-16 15:27 -32.90260 -68.79455 3695 ft 168 kts 359°
2026-04-16 15:28 -32.89139 -68.79438 3406 ft 153 kts
2026-04-16 15:28 -32.88108 -68.79400 3139 ft 144 kts
2026-04-16 15:28 -32.87117 -68.79383 2909 ft 140 kts
2026-04-16 15:28 -32.86094 -68.79367 2723 ft 149 kts
2026-04-16 15:29 -32.85072 -68.79336 2533 ft 148 kts
2026-04-16 15:29 -32.84030 -68.79312 2389 ft 148 kts
2026-04-16 15:29 -32.83388 -68.79292 2377 ft 130 kts
2026-04-16 15:29 -32.82586 -68.79279 2377 ft 70 kts
2026-04-16 15:30 -32.82143 -68.79271 2375 ft 33 kts
2026-04-16 15:30 -32.82040 -68.79270 2376 ft 20 kts 359°
2026-04-16 15:30 -32.81954 -68.79306 2375 ft 13 kts 321°
2026-04-16 15:30 -32.81932 -68.79330 2376 ft 1 kts 317°
2026-04-16 15:31 -32.81922 -68.79341 2379 ft 3 kts 319°
2026-04-16 15:31 -32.81904 -68.79360 2374 ft 4 kts 312°
2026-04-16 15:31 -32.81894 -68.79393 2374 ft 5 kts 277°
2026-04-16 15:31 -32.81902 -68.79431 2377 ft 6 kts 243°
2026-04-16 15:32 -32.81934 -68.79467 2377 ft 7 kts 212°
2026-04-16 15:32 -32.81988 -68.79489 2375 ft 9 kts 186°
2026-04-16 15:32 -32.82028 -68.79491 2377 ft 6 kts 181°
2026-04-16 15:32 -32.82075 -68.79492 2375 ft 8 kts 181°
2026-04-16 15:33 -32.82137 -68.79494 2378 ft 10 kts 181°
2026-04-16 15:33 -32.82215 -68.79495 2375 ft 12 kts 181°
2026-04-16 15:33 -32.82306 -68.79497 2376 ft 14 kts 180°
2026-04-16 15:33 -32.82407 -68.79499 2379 ft 16 kts 180°
2026-04-16 15:34 -32.82523 -68.79501 2375 ft 18 kts 181°
2026-04-16 15:34 -32.82626 -68.79504 2379 ft 10 kts 192°
2026-04-16 15:34 -32.82669 -68.79567 2378 ft 9 kts 252°
2026-04-16 15:34 -32.82674 -68.79648 2375 ft 11 kts 271°
2026-04-16 15:35 -32.82683 -68.79697 2379 ft 4 kts 217°
2026-04-16 15:35 -32.82714 -68.79706 2377 ft 5 kts 184°
2026-04-16 15:35 -32.82734 -68.79708 2381 ft 3 kts 184°
2026-04-16 15:35 -32.82754 -68.79720 2377 ft 2 kts 215°
2026-04-16 15:36 -32.82768 -68.79718 2379 ft 7 kts 171°
2026-04-16 15:36 -32.82803 -68.79724 2377 ft 1 kts 224°
2026-04-16 15:36 -32.82805 -68.79736 2376 ft 3 kts 270°
2026-04-16 15:36 -32.82802 -68.79761 2375 ft 3 kts 272°
2026-04-16 15:37 -32.82801 -68.79778 2375 ft 0 kts 271°